TimeMST,TemperatureF,Dew PointF,Humidity,Sea Level PressureIn,VisibilityMPH,Wind Direction,Wind SpeedMPH,Gust SpeedMPH,PrecipitationIn,Events,Conditions,WindDirDegrees,DateUTC
12:15 AM,26.6,12.2,55,29.82,10.0,WSW,11.5,-,N/A,,Overcast,250,2014-02-22 07:15:00
12:35 AM,26.6,12.2,55,29.82,10.0,West,12.7,18.4,N/A,,Overcast,270,2014-02-22 07:35:00
12:55 AM,26.6,12.2,55,29.82,10.0,West,9.2,-,N/A,,Overcast,260,2014-02-22 07:55:00
1:15 AM,26.6,12.2,55,29.82,10.0,WSW,8.1,-,N/A,,Overcast,240,2014-02-22 08:15:00
1:35 AM,26.6,12.2,55,29.82,10.0,SW,4.6,-,N/A,,Overcast,220,2014-02-22 08:35:00
1:55 AM,26.6,12.2,55,29.82,10.0,SSW,9.2,-,N/A,,Overcast,210,2014-02-22 08:55:00
2:15 AM,24.8,14.0,64,29.82,10.0,SW,6.9,-,N/A,,Overcast,220,2014-02-22 09:15:00
2:35 AM,24.8,15.8,69,29.81,10.0,SSE,8.1,-,N/A,,Overcast,160,2014-02-22 09:35:00
2:55 AM,24.8,15.8,69,29.81,10.0,South,6.9,-,N/A,,Overcast,180,2014-02-22 09:55:00
3:15 AM,24.8,15.8,69,29.81,9.0,SSW,5.8,-,N/A,,Overcast,200,2014-02-22 10:15:00
3:35 AM,23.0,17.6,80,29.81,8.0,SW,5.8,-,N/A,,Overcast,230,2014-02-22 10:35:00
3:55 AM,23.0,17.6,80,29.81,10.0,SSW,3.5,-,N/A,,Overcast,210,2014-02-22 10:55:00
4:15 AM,23.0,15.8,74,29.80,8.0,WSW,5.8,-,N/A,,Overcast,240,2014-02-22 11:15:00
4:35 AM,23.0,17.6,80,29.80,-9999.0,Calm,Calm,-,N/A,,Overcast,0,2014-02-22 11:35:00
4:55 AM,21.2,17.6,86,29.80,-9999.0,Calm,Calm,-,N/A,,Unknown,0,2014-02-22 11:55:00
5:15 AM,23.0,15.8,74,29.80,-9999.0,SSE,4.6,-,N/A,,Overcast,150,2014-02-22 12:15:00
5:35 AM,23.0,17.6,80,29.80,7.0,South,6.9,-,N/A,,Overcast,170,2014-02-22 12:35:00
5:55 AM,23.0,17.6,80,29.80,9.0,South,4.6,-,N/A,,Overcast,170,2014-02-22 12:55:00
6:15 AM,23.0,19.4,86,29.80,7.0,South,9.2,-,N/A,,Overcast,190,2014-02-22 13:15:00
6:35 AM,23.0,19.4,86,29.80,3.0,South,10.4,-,N/A,,Overcast,190,2014-02-22 13:35:00
6:50 AM,21.2,19.4,93,29.80,2.0,South,9.2,-,N/A,Snow,Light Snow,170,2014-02-22 13:50:00
7:59 AM,21.2,19.4,93,29.81,7.0,South,5.8,-,N/A,Snow,Light Snow,170,2014-02-22 14:59:00
8:16 AM,23.0,19.4,86,29.81,2.0,SSE,10.4,-,N/A,Snow,Light Snow,160,2014-02-22 15:16:00
8:27 AM,23.0,19.4,86,29.81,4.0,SSE,11.5,-,N/A,Snow,Light Snow,160,2014-02-22 15:27:00
8:51 AM,23.0,21.2,93,29.81,7.0,South,11.5,-,N/A,Snow,Light Snow,170,2014-02-22 15:51:00
9:54 AM,23.0,21.2,93,29.82,4.0,South,8.1,-,N/A,Snow,Light Snow,190,2014-02-22 16:54:00
10:55 AM,24.8,21.2,86,29.83,4.0,South,6.9,-,N/A,Snow,Light Snow,190,2014-02-22 17:55:00
11:40 AM,24.8,21.2,86,29.83,2.0,South,4.6,-,N/A,Snow,Light Snow,190,2014-02-22 18:40:00
11:54 AM,24.8,21.2,86,29.84,0.8,SW,6.9,-,N/A,Snow,Light Snow,230,2014-02-22 18:54:00
12:15 PM,24.8,21.2,86,29.83,4.0,SSW,5.8,-,N/A,Snow,Light Snow,210,2014-02-22 19:15:00
12:37 PM,26.6,21.2,80,29.83,4.0,South,6.9,-,N/A,Snow,Light Snow,180,2014-02-22 19:37:00
12:53 PM,26.6,17.6,69,29.82,5.0,SSW,12.7,-,N/A,Snow,Light Snow,210,2014-02-22 19:53:00
1:08 PM,24.8,19.4,80,29.82,1.0,SW,9.2,-,N/A,Snow,Light Snow,220,2014-02-22 20:08:00
1:35 PM,24.8,21.2,86,29.82,2.0,SSW,3.5,-,N/A,Snow,Light Snow,200,2014-02-22 20:35:00
1:51 PM,24.8,21.2,86,29.82,1.0,SSW,9.2,-,N/A,Snow,Light Snow,200,2014-02-22 20:51:00
1:58 PM,24.8,21.2,86,29.81,5.0,SSW,5.8,-,N/A,Snow,Light Snow,200,2014-02-22 20:58:00
2:54 PM,24.8,21.2,86,29.81,4.0,South,13.8,-,N/A,Snow,Light Snow,170,2014-02-22 21:54:00
3:55 PM,26.6,21.2,80,29.81,4.0,SSE,13.8,-,N/A,Snow,Light Snow,160,2014-02-22 22:55:00
4:25 PM,24.8,23.0,93,29.81,0.5,SSE,17.3,20.7,N/A,Snow,Snow,160,2014-02-22 23:25:00
4:50 PM,24.8,23.0,93,29.82,0.5,South,10.4,-,N/A,Snow,Snow,190,2014-02-22 23:50:00
5:03 PM,23.0,23.0,100,29.81,1.0,SE,13.8,-,N/A,Snow,Light Snow,130,2014-02-23 00:03:00
5:29 PM,24.8,24.8,100,29.81,0.5,SE,10.4,-,N/A,Snow,Light Snow,140,2014-02-23 00:29:00
5:51 PM,24.8,24.8,100,29.81,0.8,SE,10.4,-,N/A,Snow,Light Snow,140,2014-02-23 00:51:00
6:54 PM,24.8,24.8,100,29.83,0.8,SSE,11.5,-,N/A,Snow,Light Snow,160,2014-02-23 01:54:00
7:05 PM,24.8,24.8,100,29.83,2.0,SSE,11.5,-,N/A,Snow,Light Snow,160,2014-02-23 02:05:00
7:54 PM,24.8,24.8,100,29.82,1.0,SSE,11.5,-,N/A,Snow,Light Snow,160,2014-02-23 02:54:00
8:52 PM,21.2,21.2,100,29.84,1.0,North,10.4,-,N/A,Snow,Light Snow,360,2014-02-23 03:52:00
9:15 PM,21.2,19.4,93,29.85,3.0,North,6.9,-,N/A,,Overcast,360,2014-02-23 04:15:00
9:35 PM,21.2,19.4,93,29.85,1.8,North,4.6,-,N/A,,Overcast,10,2014-02-23 04:35:00
9:55 PM,19.4,19.4,100,29.86,3.0,North,5.8,-,N/A,,Overcast,360,2014-02-23 04:55:00
10:15 PM,19.4,19.4,100,29.86,3.0,North,6.9,-,N/A,,Overcast,360,2014-02-23 05:15:00
10:35 PM,19.4,17.6,93,29.86,3.0,North,6.9,-,N/A,,Overcast,10,2014-02-23 05:35:00
10:55 PM,21.2,19.4,93,29.86,7.0,Calm,Calm,-,N/A,,Overcast,0,2014-02-23 05:55:00
11:15 PM,23.0,21.2,93,29.85,-9999.0,Calm,Calm,-,N/A,,Overcast,0,2014-02-23 06:15:00
11:35 PM,21.2,21.2,100,29.86,-9999.0,WSW,3.5,-,N/A,,Overcast,250,2014-02-23 06:35:00
11:55 PM,21.2,19.4,93,29.86,5.0,Calm,Calm,-,N/A,,Overcast,0,2014-02-23 06:55:00